Location: ČR
(50.0000°N, 15.0000°E)
Time: 09:26:11
(UTC+00:00)

Vanguard 1 - All Passes

Search period start: 21 October 2021 00:00
Search period end: 31 October 2021 00:00
Orbit: 653 x 3829 km, 34.2° (Epoch: 19 October)

Date Brightness Start Highest point End Pass type
(mag) Time Alt. Az. Time Alt. Az. Time Alt. Az.
21 Oct - 11:32:25 10° S 11:34:21 12° SSE 11:36:31 10° SE daylight
21 Oct - 13:48:36 10° SW 13:53:17 23° S 14:00:02 10° SE daylight
21 Oct - 16:07:41 10° WSW 16:13:22 20° SSW 16:21:29 10° SSE daylight
22 Oct - 11:52:02 10° SSW 11:54:47 14° SSE 11:58:05 10° SE daylight
22 Oct - 14:09:17 10° SW 14:13:56 22° S 14:20:37 10° SE daylight
22 Oct - 16:29:13 10° SW 16:34:10 16° SSW 16:40:44 10° SSE visible
23 Oct - 12:12:09 10° SSW 12:15:18 16° SSE 12:19:10 10° SE daylight
23 Oct - 14:30:07 10° SW 14:34:38 20° S 14:40:57 10° SE daylight
23 Oct - 16:51:44 10° SW 16:54:59 12° SSW 16:58:49 10° S visible
24 Oct - 12:32:31 10° SSW 12:35:51 17° S 12:40:02 10° SE daylight
24 Oct - 14:51:11 10° SW 14:55:22 17° S 15:00:56 10° SSE daylight
25 Oct - 12:53:06 10° SW 12:56:27 17° S 13:00:41 10° SE daylight
25 Oct - 15:12:42 10° SW 15:16:07 14° SSW 15:20:20 10° SSE daylight
26 Oct - 10:56:29 10° S 10:58:03 12° SSE 10:59:43 10° SE daylight
26 Oct - 13:13:53 10° SW 13:17:05 16° S 13:21:05 10° SSE daylight
26 Oct - 15:35:53 10° SSW 15:36:52 10° SSW 15:37:54 10° S daylight
27 Oct - 11:16:29 10° SSW 11:18:35 13° S 11:20:52 10° SE daylight
27 Oct - 13:34:57 10° SW 13:37:44 14° S 13:41:06 10° SSE daylight
28 Oct - 11:36:54 10° SSW 11:39:08 13° S 11:41:37 10° SSE daylight
28 Oct - 13:56:38 10° SSW 13:58:25 11° S 14:00:24 10° S daylight
29 Oct - 11:57:37 10° SSW 11:59:44 13° S 12:02:04 10° SSE daylight
30 Oct - 10:00:11 10° S 10:01:19 11° S 10:02:27 10° SSE daylight
30 Oct - 12:18:44 10° SSW 12:20:20 11° S 12:22:03 10° SSE daylight
